Location: Lhota
(50.0887°N, 14.0116°E)
Time: 11:02:42
(UTC+00:00)

CZ-4B R/B - Pass Details

Date: 19 May 2025
Orbit: 807 x 881 km, 98.9° (Epoch: 23 June)

Event Time Altitude Azimuth Distance (km) Brightness Sun altitude
Rises 19:21:51 0° 174° (S) 3,424 5.9 -5.0°
Reaches altitude 10° 19:24:16 10° 178° (S) 2,481 5.3 -5.3°
Maximum altitude 19:29:42 60° 258° (WSW) 960 3.8 -6.0°
Drops below altitude 10° 19:35:05 10° 338° (NNW) 2,450 6.8 -6.6°
Sets 19:37:28 0° 343° (NNW) 3,378 7.5 -6.9°
